[[{"header":{"parameterUnit":"m.s-1","parameterCategory":1,"la1":30.2991,"la2":30.254,"lo1":-89.0895,"lo2":-89.0444,"dy":0.0017,"dx":0.0017,"nx":28,"ny":28,"refTime":"2024-04-22T03:00:00:Z","depth":0,"parameterNumber":2,"parameterNumberName":"U-component_of_WINDS"},"data":[0,0,0,0,0,0,0,0,0,0,0,0,0,0,0,0,0,0,0,0,0,0,0,0,0,0,0,0,0,0,0,0,0,0,0,0,0,0,0,0,0,0,0,0,0,0,0,0,0,0,0,0,0,0,0,0,0,0,0.9217,0.9217,0,0.9213,0.9213,0.9213,0.921,0.921,0.921,0.921,0.9206,0.9205,0.9205,0,0,0,0,0,0,0,0,0,0,0,0,0,0.9222,0.9222,0.9217,0.9217,0.9216,0.9213,0.9213,0.9213,0.921,0.921,0.921,0.921,0.9206,0.9205,0.9205,0,0,0,0,0,0,0,0,0,0,0,0,0,0.9219,0.9222,0.9217,0.9215,0.9214,0.9213,0.9213,0.9213,0.921,0.921,0.921,0.921,0.9206,0.9205,0.9205,0.9205,0,0,0.9205,0.9205,0,0,0,0,0,0,0,0,0.9219,0.9219,0.9215,0.9215,0.9215,0.9212,0.9213,0.921,0.921,0.9212,0.921,0.921,0.9208,0.9207,0.9207,0.9205,0.9205,0.9205,0.9205,0.9205,0.9205,0,0,0,0,0,0,0,0.9219,0.9219,0.9215,0.9215,0.9215,0.9214,0.9214,0.9212,0.921,0.9212,0.9211,0.9211,0.9207,0.9207,0.9207,0.9205,0.9205,0.9205,0.9205,0.9205,0.9204,0.9204,0,0,0,0,0,0,0.922,0.9219,0.9215,0.9215,0.9217,0.9214,0.9214,0.9213,0.921,0.9209,0.9211,0.9211,0.9207,0.9207,0.9206,0.9207,0.9205,0.9205,0.9205,0.9204,0.9204,0.9204,0,0,0,0,0,0,0.922,0.9219,0.9215,0.9217,0.9216,0.9214,0.9213,0.9213,0.9212,0.9209,0.9209,0.9211,0.9207,0.9207,0.9206,0.9206,0.9205,0.9204,0.9204,0.9204,0.9204,0.9207,0,0,0,0,0,0,0.922,0.9219,0.9219,0.9217,0.9216,0.9215,0.9213,0.9213,0.9212,0.9212,0.9209,0.9209,0.9207,0.9206,0.9206,0.9206,0.9204,0.9204,0.9204,0.9204,0.9207,0.9207,0.9207,0,0,0,0,0,0.922,0.922,0.9219,0.9219,0.9216,0.9215,0.9214,0.9213,0.9212,0.9212,0.921,0.9209,0.9207,0.9206,0.9206,0.9206,0.9204,0.9204,0.9204,0.9207,0.9207,0.9207,0,0,0,0,0,0,0.9221,0.9219,0.9219,0.9217,0.9216,0.9214,0.9214,0.9213,0.9212,0.9211,0.9209,0.9209,0.9208,0.9207,0.9207,0.9207,0.9205,0.9205,0.9207,0.9208,0.9208,0.9208,0.9204,0,0,0,0,0,0.9222,0.9221,0.9219,0.9218,0.9218,0.9216,0.9215,0.9214,0.9213,0.9212,0.9211,0.921,0.9209,0.9208,0.9207,0.9207,0.9207,0.9207,0.9208,0.9208,0.9208,0.9208,0.9209,0.9205,0.9205,0.9205,0,0,0.9222,0.9221,0.922,0.9218,0.9217,0.9217,0.9215,0.9215,0.9214,0.9212,0.9211,0.9211,0.9209,0.9209,0.9209,0.9208,0.9209,0.9208,0.9208,0.9208,0.9209,0.9209,0.9209,0.9205,0.9205,0.9205,0,0,0.9222,0.9221,0.922,0.922,0.9218,0.9218,0.9218,0.9216,0.9215,0.9215,0.9214,0.9213,0.9212,0.9211,0.921,0.9212,0.9211,0.9212,0.9213,0.9214,0.9215,0.9215,0.9216,0.9216,0.9212,0.9212,0.9212,0,0.9222,0.9221,0.922,0.922,0.9219,0.9218,0.9218,0.9217,0.9216,0.9216,0.9215,0.9214,0.9213,0.9213,0.9213,0.9213,0.9213,0.9212,0.9215,0.9215,0.9215,0.9216,0.9216,0.9212,0.9212,0.9212,0.9212,0,0.9222,0.9221,0.9221,0.922,0.922,0.922,0.9219,0.9219,0.9218,0.9218,0.9218,0.9217,0.9216,0.9216,0.9215,0.9216,0.9216,0.9215,0.9213,0.9216,0.9217,0.9217,0.9212,0.9212,0.9212,0.9212,0,0,0.9221,0.9221,0.9221,0.9221,0.922,0.922,0.922,0.922,0.922,0.922,0.922,0.922,0.9219,0.9219,0.9218,0.9218,0.9221,0.9218,0.9218,0.9218,0.9223,0.9223,0.9224,0.922,0.922,0.922,0.9223,0,0.9221,0.9221,0.9221,0.9221,0.9221,0.9221,0.9221,0.9221,0.9221,0.9221,0.9221,0.9221,0.922,0.922,0.9221,0.922,0.9222,0.922,0.9221,0.9221,0.9221,0.9224,0.9224,0.9227,0.9223,0.9223,0.9223,0,0.9221,0.9221,0.9221,0.9222,0.9222,0.9222,0.9222,0.9223,0.9223,0.9223,0.9223,0.9223,0.9223,0.9222,0.9224,0.9223,0.9223,0.9223,0.9223,0.9223,0.9222,0.9224,0.9227,0.9228,0.9224,0.9224,0.9224,0,0.9221,0.9221,0.9221,0.9222,0.9222,0.9222,0.9223,0.9223,0.9223,0.9224,0.9224,0.9225,0.9225,0.9226,0.9226,0.9225,0.9227,0.9226,0.9227,0.9227,0.9227,0.9227,0.9231,0.9228,0.9228,0.9228,0.9228,0,0.922,0.9221,0.9222,0.9222,0.9223,0.9223,0.9224,0.9224,0.9224,0.9225,0.9225,0.9226,0.9226,0.9227,0.9227,0.9228,0.9228,0.9228,0.9228,0.9228,0.9228,0.9228,0.9228,0.9228,0.9228,0.9228,0.9228,0,0.922,0.922,0.9221,0.9222,0.9223,0.9223,0.9224,0.9225,0.9225,0.9226,0.9226,0.9227,0.9228,0.9228,0.923,0.923,0.9232,0.9231,0.9231,0.9231,0.9233,0.9233,0.9236,0.9237,0.9234,0.9234,0.9234,0,0.922,0.922,0.9221,0.9222,0.9222,0.9223,0.9224,0.9225,0.9225,0.9227,0.9227,0.9229,0.923,0.9232,0.9232,0.9234,0.9234,0.9235,0.9234,0.9234,0.9234,0.9234,0.9234,0.9235,0.9235,0.9235,0.9235,0,0.9219,0.922,0.9221,0.9222,0.9223,0.9224,0.9225,0.9226,0.9227,0.9228,0.9229,0.923,0.9232,0.9233,0.9235,0.9236,0.9236,0.9236,0.9236,0.9236,0.9236,0.9236,0.9232,0.9235,0.9235,0.9235,0.9235,0.9235,0.9219,0.922,0.9221,0.9222,0.9223,0.9225,0.9226,0.9227,0.9228,0.923,0.923,0.9232,0.9234,0.9236,0.9237,0.9238,0.9238,0.9238,0.9239,0.9239,0.9239,0.9236,0.9239,0.9239,0.9239,0.9239,0.9239,0,0.9218,0.922,0.9221,0.9223,0.9224,0.9225,0.9226,0.9227,0.9229,0.9231,0.9232,0.9234,0.9236,0.9238,0.924,0.9241,0.9241,0.9241,0.9241,0.9241,0.9239,0.9238,0.9241,0.9241,0.9241,0.9241,0.9241,0.9241,0.9218,0.922,0.9221,0.9223,0.9225,0.9227,0.9228,0.9229,0.923,0.9233,0.9235,0.9236,0.9238,0.924,0.9242,0.9243,0.9243,0.9244,0.9244,0.9242,0.9242,0.9241,0.9241,0.9244,0.9244,0.9247,0.9247,0.9247]},{"header":{"parameterUnit":"m.s-1","parameterCategory":1,"la1":30.2991,"la2":30.254,"lo1":-89.0895,"lo2":-89.0444,"dy":0.0017,"dx":0.0017,"nx":28,"ny":28,"refTime":"2024-04-22T03:00:00:Z","depth":0,"parameterNumber":3,"parameterNumberName":"V-component_of_WINDS"},"data":[0,0,0,0,0,0,0,0,0,0,0,0,0,0,0,0,0,0,0,0,0,0,0,0,0,0,0,0,0,0,0,0,0,0,0,0,0,0,0,0,0,0,0,0,0,0,0,0,0,0,0,0,0,0,0,0,0,0,-6.8183,-6.8184,0,-6.8255,-6.8256,-6.8257,-6.8232,-6.8231,-6.8229,-6.8228,-6.8295,-6.8298,-6.8301,0,0,0,0,0,0,0,0,0,0,0,0,0,-6.802,-6.8024,-6.8183,-6.8184,-6.8185,-6.8255,-6.8256,-6.8257,-6.8232,-6.823,-6.8229,-6.8227,-6.8294,-6.8298,-6.8302,0,0,0,0,0,0,0,0,0,0,0,0,0,-6.8091,-6.8025,-6.8183,-6.8181,-6.8182,-6.8255,-6.8256,-6.8257,-6.8233,-6.823,-6.8228,-6.8226,-6.8293,-6.8297,-6.8302,-6.8379,0,0,-6.8317,-6.8319,0,0,0,0,0,0,0,0,-6.8087,-6.8097,-6.8181,-6.8182,-6.8182,-6.8232,-6.8223,-6.8298,-6.8233,-6.8213,-6.8227,-6.8225,-6.8276,-6.8282,-6.83,-6.8382,-6.8385,-6.8317,-6.832,-6.8322,-6.8324,0,0,0,0,0,0,0,-6.8083,-6.8094,-6.8211,-6.8182,-6.8183,-6.8176,-6.8183,-6.8237,-6.8256,-6.8215,-6.8213,-6.8222,-6.8275,-6.8295,-6.8301,-6.8386,-6.8317,-6.8322,-6.8325,-6.8326,-6.8537,-6.8539,0,0,0,0,0,0,-6.8078,-6.809,-6.8209,-6.8214,-6.8128,-6.818,-6.8189,-6.8219,-6.8256,-6.8259,-6.8224,-6.8221,-6.8288,-6.8296,-6.8304,-6.8398,-6.8322,-6.8327,-6.833,-6.8534,-6.8537,-6.854,0,0,0,0,0,0,-6.8074,-6.8089,-6.8206,-6.8152,-6.8166,-6.8186,-6.8219,-6.8221,-6.8241,-6.8263,-6.8266,-6.8242,-6.8287,-6.8297,-6.8361,-6.8399,-6.8329,-6.8334,-6.8531,-6.8535,-6.8539,-6.8585,0,0,0,0,0,0,-6.807,-6.8088,-6.8118,-6.8153,-6.8169,-6.8264,-6.8222,-6.8224,-6.825,-6.8247,-6.828,-6.8283,-6.8286,-6.8354,-6.8366,-6.8405,-6.8337,-6.8527,-6.8533,-6.8537,-6.858,-6.859,-6.8599,0,0,0,0,0,-6.8064,-6.8126,-6.8119,-6.8134,-6.8208,-6.8266,-6.8275,-6.8279,-6.8254,-6.8284,-6.8298,-6.8282,-6.8394,-6.8361,-6.8374,-6.8415,-6.8525,-6.8531,-6.8537,-6.8576,-6.8588,-6.8598,0,0,0,0,0,0,-6.8092,-6.813,-6.8123,-6.8199,-6.823,-6.8262,-6.83,-6.8291,-6.8328,-6.8323,-6.8324,-6.8332,-6.8398,-6.8413,-6.8376,-6.8492,-6.8455,-6.8464,-6.848,-6.8492,-6.8501,-6.8496,-6.8341,0,0,0,0,0,-6.8108,-6.8154,-6.8184,-6.8247,-6.8264,-6.828,-6.8305,-6.8306,-6.8337,-6.8349,-6.8368,-6.8397,-6.8439,-6.8466,-6.8506,-6.8582,-6.859,-6.8617,-6.8626,-6.8634,-6.8641,-6.8685,-6.8697,-6.856,-6.856,-6.856,0,0,-6.8139,-6.8166,-6.8194,-6.8254,-6.8278,-6.8325,-6.829,-6.834,-6.8375,-6.8356,-6.8419,-6.8434,-6.8467,-6.8539,-6.8571,-6.8553,-6.8681,-6.8642,-6.8647,-6.8651,-6.8692,-6.8705,-6.8717,-6.8564,-6.8563,-6.8562,0,0,-6.822,-6.8245,-6.8302,-6.8328,-6.8366,-6.8376,-6.839,-6.8425,-6.8435,-6.8499,-6.8486,-6.8526,-6.8598,-6.8623,-6.8644,-6.8739,-6.8726,-6.8752,-6.8799,-6.8841,-6.8852,-6.8862,-6.8896,-6.8909,-6.8759,-6.8759,-6.8759,0,-6.8253,-6.8325,-6.8331,-6.8384,-6.8411,-6.8399,-6.8456,-6.848,-6.8528,-6.8547,-6.8526,-6.8618,-6.8639,-6.8717,-6.8741,-6.8759,-6.8774,-6.8747,-6.8851,-6.886,-6.8869,-6.8902,-6.8915,-6.8762,-6.8762,-6.8761,-6.8761,0,-6.8365,-6.8415,-6.8456,-6.8507,-6.8538,-6.8593,-6.8606,-6.8637,-6.8636,-6.8648,-6.8714,-6.874,-6.8785,-6.8804,-6.8801,-6.8882,-6.887,-6.885,-6.8813,-6.8885,-6.8916,-6.8929,-6.8766,-6.8765,-6.8764,-6.8764,0,0,-6.8463,-6.852,-6.8534,-6.8558,-6.8601,-6.8639,-6.8693,-6.8741,-6.8768,-6.8802,-6.8847,-6.891,-6.8894,-6.8918,-6.8919,-6.8956,-6.9031,-6.8932,-6.8933,-6.895,-6.9122,-6.9137,-6.9151,-6.9023,-6.9025,-6.9027,-6.912,0,-6.8549,-6.8647,-6.8655,-6.8743,-6.879,-6.8781,-6.8828,-6.8859,-6.8873,-6.8913,-6.8927,-6.8973,-6.8947,-6.8962,-6.8998,-6.9014,-6.9065,-6.9007,-6.9064,-6.9066,-6.9056,-6.9167,-6.9182,-6.9269,-6.9132,-6.9134,-6.9135,0,-6.8661,-6.8702,-6.8796,-6.8835,-6.8855,-6.8897,-6.8943,-6.8982,-6.9017,-6.9025,-6.9055,-6.9051,-6.9106,-6.9068,-6.9144,-6.9104,-6.9128,-6.914,-6.9143,-6.9148,-6.9105,-6.9176,-6.9296,-6.9309,-6.9154,-6.9153,-6.9151,0,-6.8724,-6.8803,-6.887,-6.889,-6.8937,-6.8968,-6.8988,-6.9021,-6.905,-6.9089,-6.9108,-6.9152,-6.9176,-6.921,-6.9218,-6.9189,-6.9294,-6.9256,-6.9301,-6.9301,-6.9323,-6.9322,-6.9449,-6.9339,-6.9338,-6.9338,-6.9338,0,-6.8819,-6.8876,-6.89,-6.8941,-6.9005,-6.9014,-6.9077,-6.9095,-6.9126,-6.9169,-6.9163,-6.9204,-6.9212,-6.9255,-6.9261,-6.9324,-6.9334,-6.9341,-6.9342,-6.9342,-6.9341,-6.9357,-6.9351,-6.9342,-6.9341,-6.934,-6.934,0,-6.89,-6.8918,-6.899,-6.903,-6.9042,-6.9088,-6.9121,-6.916,-6.9174,-6.923,-6.9243,-6.9265,-6.9315,-6.9327,-6.9385,-6.9389,-6.9464,-6.9459,-6.9453,-6.9453,-6.9497,-6.9493,-6.964,-6.966,-6.9536,-6.9537,-6.9538,0,-6.8959,-6.9004,-6.905,-6.908,-6.9103,-6.9151,-6.9182,-6.9193,-6.9225,-6.927,-6.9304,-6.9354,-6.9394,-6.9474,-6.9493,-6.9538,-6.9534,-6.9583,-6.9541,-6.954,-6.9536,-6.9533,-6.9538,-6.9591,-6.9592,-6.9593,-6.9594,0,-6.9062,-6.907,-6.9115,-6.9165,-6.9203,-6.9241,-6.9278,-6.9303,-6.9319,-6.9355,-6.9408,-6.9439,-6.9501,-6.9551,-6.9597,-6.9616,-6.9608,-6.9607,-6.962,-6.962,-6.9615,-6.9619,-6.9475,-6.9603,-6.9603,-6.9602,-6.9601,-6.9601,-6.9134,-6.9174,-6.9214,-6.9266,-6.9296,-6.9332,-6.9371,-6.9392,-6.9437,-6.949,-6.9493,-6.9551,-6.9586,-6.9648,-6.967,-6.9714,-6.9699,-6.9718,-6.9722,-6.9727,-6.9731,-6.9609,-6.9722,-6.9722,-6.9722,-6.9722,-6.9721,0,-6.9237,-6.9264,-6.9311,-6.9366,-6.9406,-6.9399,-6.944,-6.9474,-6.9525,-6.956,-6.9602,-6.9663,-6.9712,-6.9737,-6.9785,-6.9815,-6.9813,-6.9828,-6.9825,-6.983,-6.9742,-6.9726,-6.9829,-6.9829,-6.9829,-6.9829,-6.9829,-6.9829,-6.9296,-6.9365,-6.9378,-6.9461,-6.9486,-6.9545,-6.9569,-6.9602,-6.9631,-6.97,-6.9742,-6.9759,-6.979,-6.9841,-6.9886,-6.9892,-6.991,-6.9927,-6.9931,-6.9847,-6.9836,-6.9826,-6.9811,-6.993,-6.9931,-7.0016,-7.0016,-7.0017]}]]